Regional Weather Roundup
Issued by NWS Grand Forks, ND

Home | Current Version | Previous Version | Graphics & Text | Print | Product List | Glossary On
Versions: 1 2 3 4 5 6 7 8 9 10 11 12 13 14 15 16 17 18 19 20 21 22 23 24 25 26 27 28 29 30 31 32 33 34 35 36 37 38 39 40 41 42 43 44 45 46 47 48 49 50
000
ASUS43 KFGF 190110
RWRFGF
PRAIRIE TO PINES  WEATHER ROUNDUP
NATIONAL WEATHER SERVICE EASTERN NORTH DAKOTA/GRAND FORKS ND
700 PM CST THU DEC 18 2014

 **SATELLITE DATA USED TO AUGMENT SKY COVER AT AUTOMATED STATIONS**
 *****  WEATHER ACROSS EASTERN NORTH DAKOTA  *****

CITY           SKY/WX    TMP DP  RH WIND       PRES   REMARKS
GRAND FORKS    CLOUDY    19  15  84 S9        30.16F WCI   8
GRAND FRKS AFB CLOUDY    19  18  96 S10       30.15F WCI   7
DEVILS LAKE    CLOUDY    21  12  68 SE13      30.04F WCI   9
FARGO          CLOUDY    21  15  78 S13       30.18S WCI   9
WAHPETON ARPT  CLOUDY    19  16  86 SE7       30.19F WCI  10
$$

 ***** WEATHER ACROSS CENTRAL AND WESTERN NORTH DAKOTA  *****

CITY           SKY/WX    TMP DP  RH WIND       PRES   REMARKS
BISMARCK       CLOUDY    26  24  92 S8        30.03S WCI  18
MINOT          CLOUDY    23  19  85 SE6       29.99R WCI  16
JAMESTOWN      CLOUDY    22  20  92 S12       30.07S WCI  10
MINOT AFB      CLOUDY    22  22  99 SE6       29.99R WCI  15
GARRISON         N/A     26  22  84 NW3       29.98S
WILLISTON      CLOUDY    28  26  92 S5        29.95S WCI  23
DICKINSON      FOG       20  17  88 S6        29.93R VSB 1/4 WCI  12
HETTINGER      CLEAR     26  24  92 CALM      29.97S
$$

 *****  OTHER AIRPORT OBSERVATIONS IN OUR AREA  *****

CITY           SKY/WX    TMP DP  RH WIND       PRES   REMARKS
WALHALLA         N/A     18  18 100 SE10      30.13S WCI   6
GRAFTON AIRPOR NOT AVBL
VALLEY CITY AR FLURRIES  19  19 100 S10       30.11S WCI   8
CANDO          CLOUDY    19  19 100 S9        30.06S FOG     WCI   9
CAVALIER APRT  CLOUDY    19  16  86 S10       30.14F WCI   8
GWINNER        CLOUDY    23  23 100 MISG      30.14F
ROLLA          CLOUDY    18  18 100 S9        30.02F FOG     WCI   6
 ***** THE ABOVE OBSERVATIONS ARE NON NWS ARE NOT QUALITY
       CONTROLLED AND MAY MIS-REPORT RAIN FOR SNOW...
$$

  *****  WEATHER ACROSS NORTHERN MINNESOTA  *****

CITY           SKY/WX    TMP DP  RH WIND       PRES   REMARKS
FLAG ISLAND    CLEAR     16  12  86 SE10      30.19S WCI   3
WARROAD        PTCLDY    12  10  92 SE5       30.19F WCI   4
ROSEAU         MOCLDY    18  12  79 SE7       30.18S WCI   8
HALLOCK        PTCLDY    19  16  86 S10       30.16S WCI   8
THF RVR FALLS  CLOUDY    19  16  86 SE7       30.17S WCI  10
BAUDETTE       CLOUDY    19  14  81 S8        30.19S WCI   9
WASKISH        CLOUDY    18  16  93 CALM      30.20S
CROOKSTON      CLOUDY    19  16  86 S9        30.19S WCI   9
STEPHEN NDAWN    N/A     19  16  86 S9          N/A  WCI   9
GREENBUSH NDAW   N/A     19  16  86 S9          N/A  WCI   9
$$
  *****  WEATHER ACROSS CENTRAL AND WEST MINNESOTA  *****

CITY           SKY/WX    TMP DP  RH WIND       PRES   REMARKS
FOSSTON        CLOUDY    18  16  93 SE7       30.17S WCI   8
BEMIDJI        CLOUDY    18  14  86 SE9       30.17F WCI   6
PARK RAPIDS    CLOUDY    18  13  80 SE6       30.18S WCI  10
ELBOW LAKE     CLOUDY    19  15  85 SE10      30.19S WCI   7
WADENA         CLOUDY    18  12  79 NW7       30.19S WCI   8
DETROIT LAKES  CLOUDY    21  18  86 S10       30.17F WCI  10
MOORHEAD       CLOUDY    21  19  93 S10       30.19F WCI  10
FERGUS FALLS   CLOUDY    19  14  79 SE9       30.23R WCI   9
MORRIS MN      CLOUDY    19  16  86 SE12      30.19F WCI   7
STAPLES        CLOUDY    18  12  79 SE6       30.21S WCI   9
$$
  *****  WEATHER ELSEWHERE ACROSS MINNESOTA  *****

CITY           SKY/WX    TMP DP  RH WIND       PRES   REMARKS
DULUTH         CLOUDY    24  17  74 CALM      30.21S
INTRNTL FALLS  CLOUDY    20  16  84 E5        30.22S WCI  13
ELY            CLOUDY    23  19  86 CALM      30.22S
CLOQUET        CLOUDY    23  19  86 CALM      30.22S
WHEATON        CLOUDY    18  16  93 SE12      30.21S WCI   5
BRAINERD       CLOUDY    19  15  84 VRB5      30.22S WCI  12
HIBBING        CLOUDY    23  18  81 CALM      30.21F
ALEXANDRIA     CLOUDY    19  13  77 SE8       30.20R WCI   9
SAINT CLOUD    CLOUDY    20  14  77 CALM      30.24S
MINNEAPOLIS    CLOUDY    20  15  81 SE3       30.27S
$$

  *****  WEATHER ACROSS SOUTH DAKOTA  *****

CITY           SKY/WX    TMP DP  RH WIND       PRES   REMARKS
SIOUX FALLS    CLOUDY    27  23  85 S7        30.18R WCI  19
BROOKINGS      NOT AVBL
WATERTOWN      CLOUDY    23  21  92 S8        30.12S WCI  14
HURON          CLOUDY    26  23  88 S7        30.14S WCI  18
SISSETON         N/A     20  18  92 S10       30.17S WCI   9
ABERDEEN       CLOUDY    26  22  84 S9        30.13S WCI  17
MITCHELL       CLOUDY    27  24  89 SE8       30.16S WCI  19
PIERRE         CLOUDY    28  24  85 S6        30.06S WCI  22
MOBRIDGE       CLOUDY    28  25  88 S8        30.02S WCI  20
RAPID CITY     CLEAR     27  22  81 CALM      30.00R
$$

  *****  SOME WEATHER IN NEARBY STATES *****

CITY           SKY/WX    TMP DP  RH WIND       PRES   REMARKS
GLASGOW MT     CLEAR     24  21  88 NE5       29.90F WCI  18
GREAT FALLS MT MOCLDY    36  26  67 SW17G23   29.90S
CHEYENNE WY    MOCLDY    27  17  66 W8        30.03R WCI  19
SCOTTSBLUFF NE CLOUDY    16  13  88 S3        30.05R
OMAHA NE       CLOUDY    31  26  82 SE6       30.23S
DES MOINES IA  CLOUDY    29  22  75 SE5       30.26R WCI  24
DAVENPORT IA   CLOUDY    23  17  78 CALM      30.28R
CHICAGO IL     CLOUDY    28  19  69 N7        30.24S WCI  21
EAU CLAIRE WI  CLOUDY    24  18  77 CALM      30.27R
LA CROSSE WI   CLOUDY    26  18  71 N3        30.28S
$$

  *****  SOME NATIONAL WEATHER *****

CITY           SKY/WX    TMP DP  RH WIND       PRES   REMARKS
LA GUARDIA NY  MOCLDY    39  28  64 NW16      29.97R
RALEIGH NC     MOCLDY    43  26  51 CALM      30.11S
ATLANTA GA     MOCLDY    47  33  58 NW9       30.13S
NEW ORLEANS LA CLOUDY    59  54  83 E12       30.13R
OKLAHOMA CITY  DRIZZLE   43  39  87 NE10      30.18R FOG
ALBUQUERQUE NM CLOUDY    40  28  62 NW5       30.11R
SALT LAKE CITY MOCLDY    37  32  82 W6        30.16R
LOS ANGELES CA PTCLDY    58  51  78 SW6       30.16R
BOISE ID       CLOUDY    44  33  65 SE10      30.08S
SEATTLE WA     LGT RAIN  48  43  82 E12       29.77F
$$

*** WEATHER ACROSS MANITOBA...SASKATCHEWAN AND ONTARIO ***
                ***ONTARIO***

CITY           SKY/WX    TMP DP  RH WIND       PRES   REMARKS
GERALDTON      CLEAR      0  -4  85 SW2       30.26S
THUNDER BAY    CLEAR      5   1  85 SW7       30.31S WCI  -7
SIOUX LOOKOUT  FLURRIES  12  10  92 SE2       30.23F
TORONTO        CLOUDY    27  19  74 NW17      30.11S WCI  14
BIG TROUT LK   CLEAR      1  -2  85 SW7       30.19S WCI -11
PICKLE LAKE    PTCLDY     5  -2  72 S8        30.22F WCI  -8
DRYDEN         CLOUDY    16  14  93 S6        30.21F WCI   7
KENORA         NOT AVBL
$$
                *** MANITOBA***

CITY           SKY/WX    TMP DP  RH WIND       PRES   REMARKS
BRANDON        FLURRIES  18  16  93 SE3       30.05S
DAUPHIN        MOCLDY     7   3  85 SE2       30.04F
ISLAND LAKE    CLEAR     10   7  85 S6        30.12S WCI   1
PILOT MOUND      N/A     18  18 100 S10         N/A  WCI   6
THE PAS        FLURRIES  12  10  92 S9        29.98S WCI   0
THOMPSON       FLURRIES   7   3  85 S6        30.00S WCI  -3
WINNIPEG       CLOUDY    19  14  79 S14       30.14F WCI   6
LYNN LAKE      FLURRIES  12  12 100 SW5       29.89R WCI   4
CHURCHILL      CRYSTALS   1  -2  85 S6        30.00F WCI -10
GILLAM         FLURRIES   3   0  85 SW8       30.04F WCI -10
$$
                ***SASKATCHEWAN***

CITY           SKY/WX    TMP DP  RH WIND       PRES   REMARKS
ESTEVAN        FLURRIES  23  23 100 SW7       29.95S WCI  15
KINDERSLEY     NOT AVBL
LLOYDMINSTER   NOT AVBL
PRINCE ALBERT  LGT SNOW  19  19 100 N2        29.90S FOG
REGINA         FLURRIES  25  25 100 S9        29.90S WCI  15
YORKTON        CLOUDY    18  14  86 SE8       29.95S WCI   7
N. BATTLEFORD  CLOUDY    18  18 100 W5        29.91S WCI  11
LA RONGE       NOT AVBL
SASKATOON      NOT AVBL
SWIFT CURRENT  CLEAR     23  23 100 W10       29.84S WCI  12
$$
NOTE: THESE ARE AUTOMATED STATIONS WITH LIMITED QUALITY CONTROL
      "FAIR" INDICATES FEW OR NO CLOUDS BELOW 12,000 FEET WITH NO
      SIGNIFICANT WEATHER AND/OR OBSTRUCTIONS TO VISIBILITY.
      SKY/WX - SKY CONDITION AND SIGNIFICANT WEATHER.
      TMP - AIR TEMPERATURE.    DP   - DEWPOINT TEMPERATURE.
      RH  - RELATIVE HUMIDITY.  PRES - PRESSURE.
      HX  - HEAT INDEX.         WCI  - WIND CHILL INDEX.
$


USA.gov is the U.S. government's official web portal to all federal, state and local government web resources and services.